Dewpoint
-28 -28 -31 -33 -34 -33 -33 -33 -33 -33 -33 -32 -31 -30 -29 -29 -29 -28 -28 -29 -32 -34 -33 -31 -30 -30 -30 -29 -30 -30 -30 -29 -29 -29 -29 -28 -28 -27 -27 -27 -27 -27
-29 -29 -31 -32 -32 -32 -32 -32 -32 -31 -31 -31 -31 -30 -30 -29 -29 -29 -30 -31 -32 -32 -30 -30 -29 -29 -29 -28 -28 -28 -29 -28 -28 -27 -27 -27 -27 -27 -27 -27 -26 -25
-28 -28 -30 -31 -31 -32 -32 -31 -31 -31 -31 -31 -31 -30 -30 -29 -29 -29 -30 -31 -31 -30 -29 -29 -28 -28 -28 -28 -28 -28 -28 -27 -27 -27 -26 -26 -26 -26 -27 -26 -26 -25
-28 -28 -29 -30 -30 -31 -31 -31 -30 -31 -31 -31 -30 -29 -29 -29 -28 -29 -30 -30 -30 -30 -29 -28 -27 -28 -28 -27 -27 -27 -27 -26 -26 -27 -26 -26 -26 -26 -26 -26 -26 -26
-28 -28 -28 -29 -30 -30 -30 -30 -31 -31 -30 -30 -29 -29 -29 -29 -29 -29 -29 -29 -30 -30 -29 -28 -28 -28 -27 -27 -27 -27 -26 -26 -26 -26 -26 -27 -27 -26 -27 -27 -26 -26
-28 -27 -28 -28 -29 -30 -30 -30 -30 -30 -30 -29 -29 -29 -29 -29 -28 -28 -28 -28 -29 -29 -28 -28 -28 -27 -27 -27 -27 -27 -27 -27 -27 -27 -26 -27 -27 -27 -27 -27 -27 -26
-28 -28 -28 -29 -29 -29 -29 -30 -29 -29 -29 -29 -29 -29 -29 -28 -28 -28 -28 -28 -28 -27 -27 -28 -28 -27 -27 -27 -27 -27 -27 -27 -28 -28 -27 -27 -27 -27 -27 -27 -27 -27
-28 -28 -29 -28 -29 -28 -28 -29 -29 -29 -29 -29 -29 -29 -28 -27 -27 -27 -28 -28 -28 -27 -28 -28 -28 -29 -28 -28 -28 -28 -28 -28 -28 -28 -27 -27 -27 -27 -27 -27 -27 -27
-29 -29 -29 -28 -28 -28 -28 -28 -29 -29 -30 -29 -28 -28 -28 -27 -27 -27 -28 -28 -28 -28 -29 -29 -29 -29 -29 -29 -28 -28 -28 -28 -28 -28 -27 -28 -27 -28 -28 -27 -26 -26
-30 -30 -29 -28 -27 -27 -28 -28 -29 -30 -29 -28 -28 -28 -28 -27 -27 -27 -28 -28 -29 -29 -30 -30 -29 -29 -29 -29 -29 -29 -29 -29 -29 -28 -28 -28 -28 -28 -28 -28 -27 -26
-29 -29 -28 -28 -28 -27 -28 -29 -29 -29 -28 -27 -27 -28 -27 -27 -26 -27 -28 -28 -29 -29 -30 -30 -30 -30 -30 -30 -30 -30 -30 -29 -29 -29 -29 -29 -29 -28 -27 -27 -26 -26
-28 -27 -27 -27 -27 -28 -28 -29 -30 -29 -27 -27 -27 -27 -27 -26 -27 -28 -29 -29 -29 -29 -30 -30 -30 -30 -30 -30 -30 -30 -30 -30 -30 -30 -29 -28 -28 -27 -27 -26 -26 -26
-27 -27 -27 -27 -28 -28 -29 -30 -29 -28 -27 -26 -27 -27 -27 -27 -29 -29 -29 -30 -30 -30 -30 -30 -30 -30 -30 -30 -30 -30 -30 -30 -29 -28 -27 -27 -27 -27 -26 -26 -26 -25
-28 -27 -27 -27 -28 -28 -28 -28 -28 -27 -26 -26 -26 -27 -28 -29 -30 -30 -30 -30 -30 -30 -30 -30 -30 -30 -30 -30 -30 -30 -30 -28 -27 -26 -25 -26 -26 -26 -26 -25 -25 -25
-28 -27 -27 -27 -27 -28 -28 -28 -27 -26 -26 -26 -27 -29 -30 -30 -30 -30 -30 -30 -30 -30 -30 -30 -30 -30 -30 -30 -30 -29 -27 -26 -26 -26 -26 -25 -25 -25 -25 -25 -25 -25
-28 -27 -27 -27 -27 -28 -28 -28 -27 -26 -27 -28 -29 -30 -30 -30 -30 -30 -30 -30 -29 -29 -29 -29 -29 -30 -30 -30 -29 -27 -26 -26 -26 -26 -25 -25 -25 -25 -25 -25 -25 -26
-28 -27 -27 -27 -27 -27 -27 -27 -26 -27 -28 -29 -30 -30 -30 -30 -30 -30 -29 -29 -29 -29 -29 -29 -29 -30 -30 -30 -28 -26 -25 -25 -25 -24 -24 -24 -24 -25 -25 -25 -26 -26
-27 -27 -27 -27 -26 -26 -26 -26 -27 -28 -29 -30 -30 -30 -30 -30 -30 -30 -29 -29 -29 -29 -29 -29 -29 -29 -29 -30 -28 -26 -25 -24 -24 -24 -24 -25 -25 -25 -25 -25 -25 -25
-27 -27 -27 -27 -27 -27 -26 -27 -28 -29 -29 -30 -30 -30 -29 -30 -30 -30 -29 -29 -29 -29 -29 -29 -29 -29 -30 -29 -28 -26 -25 -24 -24 -24 -24 -25 -25 -25 -25 -25 -25 -25
-27 -26 -26 -26 -26 -27 -27 -28 -28 -29 -29 -29 -29 -29 -29 -30 -29 -29 -29 -29 -29 -29 -29 -29 -29 -29 -30 -29 -27 -26 -25 -25 -24 -24 -24 -25 -25 -25 -25 -25 -25 -25
-27 -26 -26 -26 -26 -27 -28 -28 -29 -29 -29 -29 -29 -29 -29 -29 -29 -29 -29 -29 -29 -29 -29 -29 -29 -29 -30 -29 -27 -26 -25 -25 -24 -25 -25 -25 -25 -25 -25 -25 -26 -25
-27 -26 -26 -26 -27 -28 -28 -29 -29 -29 -29 -29 -29 -29 -29 -29 -29 -29 -29 -29 -29 -29 -28 -28 -29 -29 -30 -29 -28 -26 -26 -25 -25 -25 -25 -25 -25 -25 -26 -26 -26 -25
-27 -26 -26 -27 -28 -28 -29 -29 -29 -29 -29 -29 -29 -29 -29 -29 -29 -29 -29 -29 -29 -28 -28 -28 -29 -29 -30 -29 -28 -27 -26 -25 -25 -25 -25 -25 -25 -26 -26 -26 -25 -25
-27 -27 -28 -28 -29 -29 -29 -29 -29 -29 -29 -29 -29 -29 -29 -29 -29 -29 -29 -28 -28 -28 -28 -28 -29 -29 -30 -29 -29 -28 -26 -25 -24 -25 -25 -25 -26 -26 -26 -25 -25 -25
-28 -28 -28 -29 -29 -29 -29 -29 -29 -29 -29 -29 -29 -29 -29 -29 -29 -29 -28 -28 -28 -28 -28 -28 -29 -29 -30 -30 -30 -28 -26 -24 -24 -25 -25 -25 -25 -25 -25 -25 -26 -26
-29 -29 -29 -29 -29 -29 -29 -29 -29 -29 -29 -29 -29 -29 -29 -29 -28 -28 -28 -28 -28 -28 -28 -28 -29 -29 -30 -31 -31 -29 -26 -24 -24 -25 -25 -25 -25 -25 -25 -26 -26 -26
Wind_Speed
20 23 24 24 23 21 21 21 22 22 22 21 21 21 21 21 20 20 24 27 29 30 30 29 28 28 28 28 28 28 29 29 29 28 28 27 27 27 27 27 26 27
21 23 24 24 23 22 21 22 22 22 22 22 21 22 22 22 22 23 25 27 28 28 27 28 28 28 29 29 28 29 29 29 29 28 28 28 28 28 28 28 27 26
21 23 24 24 23 23 23 22 22 22 22 22 22 22 22 22 23 24 26 27 27 27 26 27 28 28 28 29 29 29 29 28 28 28 28 29 29 29 29 28 28 27
21 23 23 23 23 23 23 22 22 23 23 22 22 22 23 23 24 25 26 26 27 27 27 26 27 28 29 29 29 29 28 28 28 27 27 29 29 30 30 29 30 31
22 23 23 23 23 23 22 22 23 23 22 23 23 23 23 24 25 26 26 26 27 27 26 27 28 29 29 29 29 29 28 28 29 28 28 30 30 31 32 32 33 33
22 23 23 24 24 23 22 23 23 22 22 23 23 24 24 24 25 25 26 27 27 26 26 27 28 29 28 28 30 29 29 29 30 29 30 32 33 33 33 33 34 35
22 23 24 24 24 23 23 23 23 23 23 24 24 24 24 24 24 25 26 27 27 27 27 28 29 29 29 29 30 30 30 30 31 31 32 34 34 35 35 34 35 36
23 24 24 24 24 24 24 23 23 24 24 25 25 25 23 24 25 26 26 27 28 28 29 30 31 31 30 30 30 31 31 32 32 33 34 35 35 36 36 36 36 36
25 25 24 24 24 24 24 24 25 26 26 25 25 25 24 25 26 27 27 27 28 30 31 32 32 32 32 31 31 32 33 34 34 34 35 36 36 37 37 36 37 37
27 26 25 24 24 24 25 26 27 27 26 25 24 25 26 26 26 27 28 28 30 32 33 33 33 33 33 33 33 33 34 35 36 36 36 37 37 37 37 37 37 37
27 26 25 24 24 25 26 27 28 28 26 24 25 26 25 24 25 29 30 31 32 33 34 34 34 34 34 34 35 35 36 37 37 38 37 37 37 37 37 36 36 37
26 25 25 24 25 26 27 28 28 27 25 25 26 26 25 25 28 30 31 32 34 34 35 35 35 35 35 36 36 36 36 37 36 36 36 36 37 37 36 36 36 36
26 26 25 25 26 27 29 29 27 26 25 26 27 26 26 29 31 32 32 33 34 35 35 35 36 36 36 36 36 36 36 35 34 34 35 35 36 37 37 37 37 37
27 26 26 26 27 28 29 28 26 25 25 26 28 29 30 31 32 33 33 33 34 35 35 35 36 36 36 36 36 35 34 33 33 33 35 37 37 37 37 38 38 38
27 26 26 27 28 29 29 28 25 24 25 29 31 32 32 32 32 33 34 34 35 35 35 36 36 36 36 36 35 34 33 33 34 35 37 38 39 39 39 39 40 40
27 27 27 28 29 30 30 28 25 25 29 32 33 33 32 33 33 33 34 34 35 36 36 36 36 36 36 35 33 32 32 33 35 36 36 38 39 40 41 41 41 40
28 28 29 29 30 30 29 27 26 28 32 34 34 34 33 33 34 34 34 34 35 36 37 37 37 36 36 34 31 30 30 31 33 34 35 36 38 40 41 42 41 40
29 29 30 31 31 30 28 27 29 32 35 35 35 34 34 34 35 35 35 35 36 37 37 37 37 37 36 34 31 29 28 29 31 33 35 36 38 40 41 41 40 40
29 30 31 31 30 29 29 30 33 35 36 35 35 35 35 35 35 36 36 36 37 37 38 38 38 38 36 33 31 29 28 29 30 31 34 36 37 38 39 39 39 39
30 31 31 31 30 30 32 33 35 36 36 36 36 36 36 36 36 37 37 37 37 38 38 39 38 37 35 32 30 29 29 28 29 31 34 35 35 35 36 36 35 35
31 31 30 30 31 33 34 36 37 37 36 36 37 37 37 37 37 38 38 38 38 38 39 39 38 36 35 32 29 29 29 28 28 30 32 33 32 32 31 31 30 31
31 31 31 32 34 35 36 37 37 37 36 37 38 38 38 37 37 38 38 39 39 38 38 39 38 36 34 31 29 28 28 28 28 28 29 30 30 29 28 28 28 29
30 31 32 34 35 36 37 37 36 37 37 38 38 38 38 38 38 38 38 39 39 38 37 38 38 36 33 31 29 28 27 26 26 26 28 29 30 29 28 29 29 30
31 32 34 36 36 37 37 37 37 38 38 38 38 38 38 38 38 38 38 38 38 37 36 36 37 36 33 31 29 26 24 23 23 26 30 31 31 31 30 31 31 31
33 34 35 36 36 36 36 37 38 38 37 37 37 38 38 38 37 38 38 38 37 37 35 34 35 35 32 30 27 23 21 20 23 29 32 32 33 33 32 32 33 34
35 35 35 35 35 36 37 37 37 37 37 37 37 37 37 38 37 37 38 38 37 36 34 32 31 32 31 29 25 21 20 21 24 29 31 32 33 33 32 33 35 35
Wind_Direction
307 306 311 316 318 318 316 314 314 316 317 316 313 311 309 309 308 300 297 300 307 312 317 319 317 316 316 315 315 315 313 311 309 308 307 304 302 300 296 293 290 289
308 306 310 313 315 315 313 312 313 313 313 312 310 308 307 305 304 302 303 307 312 315 316 316 314 315 315 314 313 311 310 309 308 308 306 303 302 300 298 296 294 291
305 304 308 311 312 312 312 311 310 310 310 309 308 308 306 305 305 305 307 312 315 315 314 313 313 313 312 310 309 307 307 306 305 306 304 302 301 301 299 296 294 291
301 301 305 308 308 310 311 309 307 308 309 309 308 308 306 306 305 306 309 313 315 315 314 312 310 310 310 308 307 306 306 304 302 301 299 298 298 298 297 295 292 289
300 301 303 304 306 308 307 305 305 307 309 308 307 306 305 305 306 307 310 311 313 314 311 308 306 307 308 307 305 303 302 300 298 296 293 291 290 290 291 291 289 288
300 300 301 303 305 306 304 305 307 308 308 307 305 304 305 305 306 306 308 309 311 311 308 307 306 305 304 303 301 298 297 295 294 294 293 292 291 289 289 288 286 286
300 299 301 303 304 304 303 306 307 307 307 305 303 304 305 305 304 304 306 308 309 308 307 306 304 302 301 300 297 296 295 294 294 294 293 293 294 292 291 290 288 287
300 300 302 302 302 303 304 305 305 305 305 303 303 306 307 305 302 302 304 306 307 305 304 304 303 302 301 300 298 297 296 295 294 294 294 293 293 292 292 291 289 288
301 302 302 301 302 302 302 302 303 305 305 303 304 306 305 305 303 302 303 304 304 304 304 305 304 304 304 302 300 299 298 297 296 295 295 294 293 293 292 291 289 287
303 304 303 302 301 300 300 301 303 305 305 303 303 303 305 310 309 305 305 305 305 305 306 305 305 304 304 303 302 301 299 298 298 298 297 296 295 294 294 292 289 287
303 304 303 301 300 298 297 300 303 305 304 301 300 302 306 305 302 302 305 306 306 307 307 307 306 306 306 305 305 303 302 300 301 301 300 299 297 295 294 293 289 287
302 302 300 298 297 296 297 302 305 305 302 298 299 303 303 298 298 302 305 305 306 307 308 308 309 309 308 308 306 305 304 304 304 304 303 301 299 298 297 294 290 288
300 299 297 296 296 296 299 304 305 303 300 298 299 301 299 298 303 306 306 307 307 308 309 309 310 309 308 308 306 305 305 306 306 305 303 303 302 301 299 296 293 291
299 297 295 296 296 297 301 303 304 302 299 295 296 299 300 303 307 308 308 309 309 310 310 310 310 309 308 307 306 306 308 309 308 305 303 303 303 301 300 298 297 295
298 296 295 295 296 298 300 301 300 297 292 291 296 301 305 307 309 309 310 310 310 311 311 310 310 310 309 309 309 311 312 311 309 306 304 303 302 302 301 300 299 297
298 297 296 296 297 298 300 301 297 291 290 296 302 307 309 310 310 310 311 311 311 311 310 311 311 311 311 312 312 313 311 308 306 305 303 302 301 301 300 299 297 295
299 298 297 296 297 298 300 299 294 292 298 304 308 310 312 312 311 311 311 311 310 310 311 311 311 312 313 314 313 310 306 304 303 302 300 300 300 299 298 296 295 292
299 297 297 297 297 297 298 295 294 298 305 309 311 313 314 313 312 312 312 312 311 311 311 312 312 313 313 313 312 309 304 300 299 299 300 299 298 297 295 294 293 292
299 297 297 298 298 297 296 296 299 305 309 311 313 314 314 314 314 313 313 313 312 312 312 312 313 313 313 314 314 310 304 299 297 299 300 299 297 294 293 293 293 293
299 298 298 298 298 298 297 299 303 308 311 313 314 315 315 315 314 314 314 314 313 313 313 312 313 314 314 315 314 310 304 301 299 299 298 295 294 293 292 293 293 293
300 299 299 298 297 297 299 302 306 309 312 314 314 314 314 315 315 315 315 314 314 314 313 313 313 314 315 315 313 310 305 302 300 297 294 292 294 296 295 295 295 295
302 300 298 297 298 299 302 305 308 311 312 314 314 314 314 314 314 315 315 314 314 315 314 314 314 315 316 316 314 311 307 303 299 297 297 297 299 301 301 299 300 301
302 300 298 299 302 303 305 308 310 311 312 313 313 313 314 314 314 314 314 314 314 315 316 315 315 316 317 317 314 311 308 304 300 302 306 308 308 307 305 305 305 303
302 300 301 303 304 306 308 310 311 311 311 312 312 312 313 314 314 314 314 314 315 316 317 316 315 316 317 315 313 311 307 303 303 308 313 314 313 310 306 306 306 304
304 303 304 305 307 308 310 310 310 310 310 311 311 312 313 313 314 314 314 315 315 316 317 315 314 314 314 313 313 312 307 304 307 311 314 314 312 310 309 307 306 305
307 307 308 309 310 310 310 309 309 310 310 311 312 312 312 312 313 314 314 315 315 316 316 316 314 313 313 315 318 318 310 307 310 313 314 313 312 312 311 307 305 305
Height
1514 1512 1510 1508 1506 1505 1503 1502 1500 1498 1497 1495 1494 1492 1491 1490 1488 1487 1485 1483 1481 1479 1477 1476 1474 1473 1471 1470 1469 1467 1466 1465 1463 1462 1461 1460 1459 1458 1456 1455 1455 1454
1512 1510 1508 1506 1504 1503 1501 1499 1497 1496 1494 1493 1491 1490 1488 1487 1485 1484 1482 1480 1478 1476 1474 1473 1471 1470 1468 1467 1466 1464 1463 1461 1460 1459 1458 1456 1455 1454 1453 1451 1451 1450
1509 1507 1506 1504 1502 1500 1498 1497 1495 1493 1492 1490 1489 1487 1485 1484 1482 1481 1479 1477 1475 1473 1472 1470 1468 1467 1466 1464 1463 1461 1460 1458 1457 1456 1454 1453 1452 1450 1449 1448 1447 1446
1507 1505 1503 1501 1499 1498 1496 1494 1493 1491 1489 1487 1486 1484 1482 1481 1479 1477 1475 1474 1472 1470 1468 1467 1465 1464 1462 1461 1460 1458 1456 1455 1454 1453 1452 1450 1448 1447 1445 1444 1443 1442
1505 1503 1501 1499 1497 1495 1493 1492 1490 1488 1486 1484 1483 1481 1480 1478 1476 1474 1472 1470 1469 1467 1466 1464 1463 1461 1460 1458 1456 1455 1453 1452 1451 1450 1448 1446 1445 1444 1442 1441 1439 1437
1502 1500 1498 1496 1494 1492 1491 1489 1487 1485 1483 1482 1480 1478 1476 1475 1473 1471 1469 1467 1466 1464 1462 1461 1459 1458 1457 1455 1453 1451 1450 1448 1447 1446 1444 1442 1441 1439 1438 1437 1435 1433
1500 1498 1496 1493 1491 1490 1488 1486 1484 1482 1481 1479 1477 1475 1473 1471 1469 1468 1466 1464 1462 1461 1459 1458 1456 1454 1453 1452 1449 1447 1446 1444 1443 1441 1440 1437 1436 1434 1433 1432 1430 1428
1497 1495 1493 1491 1489 1487 1485 1483 1481 1480 1478 1476 1474 1472 1470 1468 1466 1464 1463 1461 1459 1457 1456 1454 1452 1451 1449 1448 1446 1443 1442 1440 1438 1437 1435 1433 1431 1429 1428 1427 1425 1423
1494 1492 1490 1488 1486 1484 1482 1480 1479 1477 1475 1473 1470 1469 1467 1465 1463 1461 1459 1458 1456 1454 1452 1450 1448 1447 1445 1444 1442 1439 1437 1435 1434 1432 1430 1428 1426 1424 1423 1422 1420 1418
1491 1489 1487 1485 1483 1481 1479 1477 1475 1473 1471 1469 1467 1465 1464 1462 1460 1458 1456 1454 1452 1450 1448 1446 1445 1443 1441 1439 1437 1435 1433 1431 1429 1427 1426 1423 1421 1420 1418 1417 1415 1413
1488 1486 1484 1482 1480 1478 1476 1474 1472 1470 1468 1466 1464 1462 1461 1459 1457 1455 1453 1450 1448 1446 1444 1442 1440 1439 1437 1435 1433 1431 1429 1427 1425 1423 1421 1419 1417 1415 1413 1411 1410 1408
1485 1483 1481 1479 1477 1475 1473 1471 1469 1467 1465 1463 1461 1459 1458 1456 1454 1452 1449 1447 1445 1442 1440 1438 1436 1434 1432 1430 1429 1427 1425 1422 1420 1418 1416 1414 1412 1410 1408 1406 1405 1403
1482 1481 1478 1476 1474 1472 1470 1468 1466 1464 1462 1460 1458 1457 1455 1452 1450 1448 1446 1443 1441 1438 1436 1434 1432 1430 1428 1426 1424 1422 1420 1418 1416 1413 1411 1409 1407 1405 1403 1401 1399 1398
1480 1478 1475 1473 1471 1469 1467 1464 1462 1461 1459 1457 1455 1453 1451 1449 1447 1444 1441 1439 1437 1435 1432 1430 1428 1426 1424 1422 1420 1418 1416 1413 1411 1409 1406 1403 1401 1399 1398 1396 1394 1393
1476 1474 1472 1470 1468 1465 1463 1461 1459 1458 1456 1454 1452 1450 1447 1445 1443 1440 1437 1435 1433 1430 1428 1426 1424 1422 1420 1418 1415 1413 1411 1408 1406 1404 1401 1398 1396 1394 1392 1390 1388 1387
1473 1471 1469 1467 1464 1462 1460 1458 1456 1455 1452 1450 1448 1446 1443 1441 1438 1436 1433 1431 1428 1426 1424 1422 1419 1417 1415 1413 1411 1409 1407 1404 1402 1399 1397 1394 1391 1389 1386 1385 1383 1381
1470 1467 1465 1463 1461 1459 1456 1454 1453 1451 1448 1446 1443 1441 1439 1436 1434 1431 1429 1427 1424 1421 1419 1417 1415 1413 1411 1409 1408 1406 1404 1402 1399 1396 1393 1391 1388 1385 1382 1380 1378 1377
1466 1464 1462 1459 1457 1455 1453 1451 1449 1447 1444 1441 1439 1436 1434 1432 1430 1427 1425 1423 1420 1417 1415 1412 1410 1408 1407 1405 1403 1402 1400 1398 1395 1392 1389 1387 1384 1382 1379 1376 1374 1372
1463 1461 1458 1456 1454 1451 1449 1447 1445 1442 1440 1437 1434 1432 1430 1427 1425 1423 1420 1418 1415 1413 1410 1407 1405 1403 1402 1400 1399 1397 1395 1394 1391 1388 1385 1382 1380 1377 1374 1372 1370 1368
1460 1457 1455 1452 1450 1448 1445 1443 1441 1438 1435 1433 1430 1428 1425 1423 1420 1418 1416 1414 1411 1408 1405 1402 1401 1399 1397 1396 1394 1392 1390 1389 1386 1383 1380 1377 1375 1373 1370 1368 1366 1364
1456 1453 1451 1449 1447 1445 1442 1439 1437 1434 1431 1428 1426 1423 1421 1418 1416 1413 1411 1409 1406 1404 1401 1397 1396 1395 1393 1391 1389 1387 1386 1384 1381 1378 1375 1373 1371 1369 1367 1365 1363 1360
1452 1450 1448 1445 1443 1441 1438 1435 1432 1429 1427 1424 1421 1419 1416 1414 1412 1409 1406 1404 1402 1400 1396 1393 1391 1390 1388 1386 1385 1383 1381 1379 1376 1373 1371 1368 1366 1364 1363 1360 1358 1356
1449 1446 1444 1442 1439 1436 1433 1430 1428 1425 1422 1420 1417 1414 1412 1410 1407 1405 1402 1400 1397 1395 1392 1388 1386 1385 1384 1382 1380 1379 1377 1375 1372 1369 1366 1364 1362 1360 1358 1356 1354 1353
1445 1443 1440 1438 1435 1432 1429 1426 1424 1421 1419 1416 1413 1410 1407 1405 1403 1400 1398 1396 1393 1391 1389 1385 1381 1380 1379 1378 1376 1375 1373 1371 1368 1365 1362 1360 1357 1355 1354 1352 1350 1348
1442 1439 1437 1434 1431 1428 1425 1422 1419 1417 1415 1412 1410 1406 1403 1401 1399 1396 1393 1391 1389 1387 1385 1382 1378 1376 1375 1373 1372 1371 1369 1367 1365 1362 1359 1356 1354 1351 1349 1347 1345 1343
1438 1435 1433 1430 1427 1424 1421 1419 1416 1413 1411 1408 1405 1403 1399 1397 1395 1392 1389 1386 1385 1383 1380 1379 1376 1372 1370 1369 1368 1367 1365 1364 1362 1359 1356 1353 1350 1348 1345 1342 1340 1338